Weather in Naryn

Kyrgyzstan     41°25′40″N   75°59′51″E
temp.,
°C
wind,
m/s
gust,
m/s
humid.,
%
clouds,
%
prec.,
mm/h
press.,
hPa
HPBL,
m
14 april, wed
wed1400:00+2ene335820 0.0 102377
03:000ene446120 0.0 1023100
06:00−2ene44615 0.0 1025101
09:00+2e33504 0.0 1023306
12:00+7e22465 0.0 1019910
15:00+9ene3240100 0.0 10161260
18:00+9ene3241100 0.0 10161010
21:00+5ene4552100 0.0 1018125
15 april, thu
thu1500:00+3e4454100 0.0 1018123
03:00+2e555845 0.0 1018124
06:000e556187 0.0 1020100
09:00+4e445199 0.0 1019320
12:00+9ese2338100 0.0 10161281
15:00+11e2233100 0.0 10132076
18:00+10ene3340100 0.1 1013776
21:00+6e3460100 0.9 1017146
16 april, fri
fri1600:00+5ene3363100 1.6 1017114
03:00+4e3461100 0.2 1017151
06:00+2e4462100 0.2 1017108
09:00+5e3352100 0.0 1017307
12:00+9se1239100 0.0 10151451
15:00+11wsw1332100 0.1 10122245
18:00+9sw4551100 1.0 10141197
21:00+5e338084 2.8 1019204
17 april, sat
sat1700:00+3ene44784 2.9 1019127
03:00+2ene44728 0.0 101983
06:00+1e4470100 0.0 101981
09:00+4e3358100 0.0 1017322
12:00+8ese114485 0.0 10141102
15:00+11sse2332100 0.0 10121731
18:00+11sse1329100 0.0 10111605
21:00+6e4452100 0.0 1014107
18 april, sun
sun1800:00+5e3454100 0.0 101475
03:00+3e3356100 0.0 101466
06:00+3e2357100 0.0 101562
09:00+5ssw1151100 0.1 1015369
12:00+6sw3554100 0.3 10151219
15:00+8wsw6946100 0.2 10131827
18:00+6wsw81049100 0.6 10151639
21:00+3wsw3767100 0.1 1018874